TimePDT,TemperatureF,Dew PointF,Humidity,Sea Level PressureIn,VisibilityMPH,Wind Direction,Wind SpeedMPH,Gust SpeedMPH,PrecipitationIn,Events,Conditions,WindDirDegrees,DateUTC
12:26 AM,51.8,46.4,82,30.04,9.0,Calm,Calm,-,N/A,,Overcast,0,2012-09-01 07:26:00
12:53 AM,51.1,48.0,89,30.05,8.0,Calm,Calm,-,N/A,,Overcast,0,2012-09-01 07:53:00
1:53 AM,51.1,46.9,86,30.06,8.0,SE,3.5,-,N/A,,Overcast,130,2012-09-01 08:53:00
2:53 AM,51.1,46.9,86,30.06,9.0,Calm,Calm,-,N/A,,Overcast,0,2012-09-01 09:53:00
3:53 AM,51.1,46.9,86,30.06,9.0,ENE,3.5,-,N/A,,Overcast,70,2012-09-01 10:53:00
4:53 AM,51.1,46.0,83,30.07,9.0,East,4.6,-,N/A,,Overcast,80,2012-09-01 11:53:00
5:53 AM,50.0,46.0,86,30.08,9.0,Calm,Calm,-,N/A,,Overcast,0,2012-09-01 12:53:00
6:53 AM,48.9,45.0,86,30.09,8.0,Calm,Calm,-,N/A,,Overcast,0,2012-09-01 13:53:00
7:53 AM,48.9,44.1,83,30.11,8.0,East,3.5,-,N/A,,Overcast,100,2012-09-01 14:53:00
8:53 AM,52.0,46.0,80,30.12,9.0,ESE,3.5,-,N/A,,Overcast,110,2012-09-01 15:53:00
9:53 AM,54.0,46.9,77,30.14,9.0,Calm,Calm,-,N/A,,Overcast,0,2012-09-01 16:53:00
10:53 AM,57.0,48.9,74,30.16,9.0,Calm,Calm,-,N/A,,Overcast,0,2012-09-01 17:53:00
11:53 AM,59.0,48.0,67,30.17,10.0,NNW,3.5,-,N/A,,Overcast,340,2012-09-01 18:53:00
12:53 PM,61.0,48.9,64,30.17,10.0,WNW,5.8,-,N/A,,Overcast,300,2012-09-01 19:53:00
1:06 PM,62.6,48.2,59,30.16,10.0,WNW,6.9,-,N/A,,Overcast,290,2012-09-01 20:06:00
1:53 PM,64.9,48.9,56,30.17,10.0,WNW,9.2,-,N/A,,Overcast,300,2012-09-01 20:53:00
2:53 PM,64.9,48.0,54,30.18,10.0,WNW,8.1,-,N/A,,Overcast,300,2012-09-01 21:53:00
3:33 PM,64.4,48.2,56,30.17,10.0,Variable,4.6,-,N/A,,Overcast,0,2012-09-01 22:33:00
3:53 PM,66.0,48.0,52,30.17,10.0,NNW,10.4,-,N/A,,Overcast,340,2012-09-01 22:53:00
4:53 PM,61.0,48.0,62,30.17,10.0,WNW,10.4,-,N/A,,Scattered Clouds,300,2012-09-01 23:53:00
5:53 PM,62.1,46.9,58,30.17,10.0,NNW,6.9,-,N/A,,Clear,330,2012-09-02 00:53:00
6:53 PM,57.9,46.9,67,30.17,10.0,NW,4.6,-,N/A,,Clear,320,2012-09-02 01:53:00
7:53 PM,55.9,48.0,75,30.17,10.0,Calm,Calm,-,N/A,,Clear,0,2012-09-02 02:53:00
8:53 PM,52.0,46.9,83,30.17,10.0,Calm,Calm,-,N/A,,Clear,0,2012-09-02 03:53:00
9:53 PM,51.1,48.0,89,30.18,10.0,Calm,Calm,-,N/A,,Clear,0,2012-09-02 04:53:00
10:53 PM,48.9,45.0,86,30.18,10.0,Calm,Calm,-,N/A,,Clear,0,2012-09-02 05:53:00
11:53 PM,46.9,44.1,90,30.18,9.0,Calm,Calm,-,N/A,,Clear,0,2012-09-02 06:53:00